Home > Weather > Timmins > Past weeks

Flag for Canada Past Weather in Timmins, Ontario, Canada — Yesterday and Last 2 Weeks

Now
66 °F

Sunny.


Feels Like: 66 °F
Forecast: 39 / 67 °F
Wind: 7 mph from North

Location: Timmins

Current Time: Jun 28, 2016 at 2:51:23 PM

Latest Report: Jun 28, 2016 at 2:00 PM


Visibility: 15 mi

Pressure: 30.11 "Hg

Humidity: 32%

Dew Point: 36 °F

Location of TimminsLocation

Past Weather in Timmins — Graph

°F

Timmins Temperature Yesterday

Maximum temperature yesterday: 68 °F (at 12:00 AM)
Minimum temperature yesterday: 48 °F (at 9:00 PM)
Average temperature yesterday: 61 °F

High & Low Weather Summary for the Past Weeks

 TemperatureHumidityPressure
High90 °F (Jun 18, 5:00 PM)100% (Jun 14, 6:00 AM)30.14 "Hg (Jun 14, 6:00 AM)
Low39 °F (Jun 14, 3:00 AM)20% (Jun 16, 4:00 PM)29.53 "Hg (Jun 20, 3:00 PM)
Average64 °F63%29.92 "Hg
* Reported Jun 13 1:00 PM — Jun 28 1:00 PM, Timmins, Weather by CustomWeather, © 2016

Note: Actual official high and low records may vary slightly from our data, if they occured in-between our weather recording intervals... More about our weather records

Advertising

Timmins Weather History for the Previous 24 Hours

Scroll right to see more
 ConditionsComfort  
Time TempWeatherWind HumidityBarometerVisibility
1:00 PM
Tue, Jun 28
63 °FPassing clouds.10 mph34%30.12 "Hg15 mi
12:00 PM61 °FPassing clouds.15 mph34%30.13 "Hg15 mi
11:00 AM57 °FPassing clouds.10 mph44%30.14 "Hg15 mi
10:00 AM54 °FPassing clouds.8 mph47%30.14 "Hg15 mi
9:00 AM50 °FScattered clouds.7 mph54%30.13 "Hg15 mi
8:00 AM46 °FPassing clouds.8 mph57%30.13 "Hg15 mi
7:00 AM41 °FScattered clouds.8 mph66%30.13 "Hg15 mi
6:00 AM41 °FPartly cloudy.7 mph61%30.11 "Hg15 mi
5:00 AM43 °FPassing clouds.7 mph57%30.09 "Hg15 mi
4:00 AM45 °FPassing clouds.9 mph57%30.08 "Hg15 mi
3:00 AM46 °FOvercast.9 mph57%30.07 "Hg15 mi
2:00 AM48 °FOvercast.9 mph66%30.07 "Hg15 mi
1:00 AM48 °FOvercast.8 mph82%30.07 "Hg15 mi
12:00 AM48 °FOvercast.8 mph82%30.06 "Hg15 mi
11:00 PM
Mon, Jun 27
50 °FPassing clouds.8 mph76%30.05 "Hg15 mi
10:00 PM48 °FPartly sunny.9 mph82%30.04 "Hg15 mi
9:00 PM48 °FOvercast.9 mph76%30.03 "Hg15 mi
8:00 PM50 °FSprinkles. More clouds than sun.17 mph82%30.00 "Hg15 mi
7:00 PM54 °FOvercast.15 mph88%29.96 "Hg15 mi
6:00 PM59 °FOvercast.16 mph72%29.92 "Hg15 mi
5:00 PM59 °FOvercast.20 mph72%29.89 "Hg15 mi
4:00 PM63 °FPartly sunny.15 mph73%29.85 "Hg15 mi
3:00 PM64 °FPartly sunny.17 mph68%29.83 "Hg15 mi
2:00 PM66 °FScattered showers. Partly sunny.18 mph73%29.80 "Hg15 mi
Weather by CustomWeather, © 2016

See weather overviewHow to use our weather pages